Time,TemperatureF,DewpointF,PressureIn,WindDirection,WindDirectionDegrees,WindSpeedMPH,WindSpeedGustMPH,Humidity,HourlyPrecipIn,Conditions,Clouds,dailyrainin,SoftwareType,DateUTC
2013-02-10 00:00:00,13.7,11.6,30.13,NNE,22,0.0,0.0,91,0.00,,,0.00,VWS V14.01,2013-02-10 05:00:00,
2013-02-10 00:30:00,13.4,11.3,30.14,NNE,22,0.0,0.0,91,0.00,,,0.00,VWS V14.01,2013-02-10 05:30:00,
2013-02-10 01:00:00,13.3,10.9,30.15,NNE,22,0.0,0.0,90,0.00,,,0.00,VWS V14.01,2013-02-10 06:00:00,
2013-02-10 01:30:00,13.3,10.9,30.16,NNE,22,0.0,0.0,90,0.00,,,0.00,VWS V14.01,2013-02-10 06:30:00,
2013-02-10 02:00:00,13.1,11.0,30.16,NNE,22,0.0,0.0,91,0.00,,,0.00,VWS V14.01,2013-02-10 07:00:00,
2013-02-10 02:30:00,12.9,10.5,30.18,NNE,22,0.0,0.0,90,0.00,,,0.00,VWS V14.01,2013-02-10 07:30:00,
2013-02-10 03:00:00,12.4,10.0,30.19,NNE,22,0.0,0.0,90,0.00,,,0.00,VWS V14.01,2013-02-10 08:00:00,
2013-02-10 03:30:00,12.3,9.9,30.20,NNE,22,0.0,0.0,90,0.00,,,0.00,VWS V14.01,2013-02-10 08:30:00,
2013-02-10 04:00:00,12.5,10.1,30.21,NNE,22,0.0,0.0,90,0.00,,,0.00,VWS V14.01,2013-02-10 09:00:00,
2013-02-10 04:30:00,12.9,10.3,30.23,NNE,22,0.0,0.0,89,0.00,,,0.00,VWS V14.01,2013-02-10 09:30:00,
2013-02-10 05:00:00,12.3,9.7,30.25,NNE,22,0.0,0.0,89,0.00,,,0.00,VWS V14.01,2013-02-10 10:00:00,
2013-02-10 05:30:00,11.9,9.3,30.26,NNE,22,0.0,0.0,89,0.00,,,0.00,VWS V14.01,2013-02-10 10:30:00,
2013-02-10 06:00:00,11.6,9.0,30.28,NNE,22,0.0,0.0,89,0.00,,,0.00,VWS V14.01,2013-02-10 11:00:00,
2013-02-10 06:30:00,12.6,10.0,30.29,NNE,22,0.0,0.0,89,0.00,,,0.00,VWS V14.01,2013-02-10 11:30:00,
2013-02-10 07:00:00,13.9,11.5,30.31,NNE,22,0.0,0.0,90,0.00,,,0.00,VWS V14.01,2013-02-10 12:00:00,
2013-02-10 07:30:00,16.6,14.4,30.32,NNE,22,0.0,0.0,91,0.00,,,0.00,VWS V14.01,2013-02-10 12:30:00,
2013-02-10 08:00:00,19.0,17.1,30.33,NNE,22,0.0,0.0,92,0.00,,,0.00,VWS V14.01,2013-02-10 13:00:00,
2013-02-10 08:30:00,21.3,19.3,30.33,NNE,22,0.0,0.0,92,0.00,,,0.00,VWS V14.01,2013-02-10 13:30:00,
2013-02-10 09:00:00,22.4,20.2,30.34,NNE,22,0.0,0.0,91,0.00,,,0.00,VWS V14.01,2013-02-10 14:00:00,
2013-02-10 09:30:00,24.2,22.2,30.35,NNE,22,0.0,0.0,92,0.00,,,0.00,VWS V14.01,2013-02-10 14:30:00,
2013-02-10 10:00:00,26.9,25.1,30.34,NNE,22,0.0,0.0,93,0.00,,,0.00,VWS V14.01,2013-02-10 15:00:00,
2013-02-10 10:30:00,28.7,26.7,30.33,NNE,22,0.0,0.0,92,0.04,,,0.04,VWS V14.01,2013-02-10 15:30:00,
2013-02-10 11:00:00,30.3,28.0,30.33,NNE,22,0.0,0.0,91,0.07,,,0.07,VWS V14.01,2013-02-10 16:00:00,
2013-02-10 11:30:00,29.8,27.0,30.33,NNE,22,0.0,0.0,89,0.10,,,0.10,VWS V14.01,2013-02-10 16:30:00,
2013-02-10 12:00:00,31.5,28.9,30.33,NNE,22,0.0,0.0,90,0.10,,,0.14,VWS V14.01,2013-02-10 17:00:00,
2013-02-10 12:30:00,32.7,30.4,30.31,North,0,0.0,1.0,91,0.12,,,0.19,VWS V14.01,2013-02-10 17:30:00,
2013-02-10 13:00:00,33.4,30.2,30.31,North,0,0.0,0.0,88,0.12,,,0.22,VWS V14.01,2013-02-10 18:00:00,
2013-02-10 13:30:00,33.4,30.0,30.31,North,0,0.0,0.0,87,0.12,,,0.26,VWS V14.01,2013-02-10 18:30:00,
2013-02-10 14:00:00,33.6,30.1,30.32,NNW,338,0.0,1.0,87,0.10,,,0.29,VWS V14.01,2013-02-10 19:00:00,
2013-02-10 14:30:00,32.5,29.6,30.33,NNW,338,0.0,0.0,89,0.09,,,0.31,VWS V14.01,2013-02-10 19:30:00,
2013-02-10 15:00:00,33.2,30.9,30.33,NNW,338,0.0,0.0,91,0.07,,,0.33,VWS V14.01,2013-02-10 20:00:00,
2013-02-10 15:30:00,31.6,29.5,30.33,NNW,338,0.0,0.0,92,0.05,,,0.34,VWS V14.01,2013-02-10 20:30:00,
2013-02-10 16:00:00,30.8,29.0,30.32,NNW,338,0.0,0.0,93,0.03,,,0.34,VWS V14.01,2013-02-10 21:00:00,
2013-02-10 16:30:00,31.6,29.5,30.33,NNW,338,0.0,0.0,92,0.05,,,0.34,VWS V14.01,2013-02-10 21:30:00,
2013-02-10 17:00:00,29.6,27.6,30.33,NW,315,0.0,0.0,92,0.01,,,0.34,VWS V14.01,2013-02-10 22:00:00,
2013-02-10 17:30:00,28.8,26.8,30.34,NW,315,0.0,0.0,92,0.00,,,0.34,VWS V14.01,2013-02-10 22:30:00,
2013-02-10 18:00:00,27.8,25.5,30.33,NW,315,0.0,0.0,91,0.00,,,0.34,VWS V14.01,2013-02-10 23:00:00,
2013-02-10 18:30:00,26.8,24.8,30.33,NW,315,0.0,0.0,92,0.00,,,0.34,VWS V14.01,2013-02-10 23:30:00,
2013-02-10 19:00:00,26.2,24.2,30.33,NW,315,0.0,0.0,92,0.00,,,0.34,VWS V14.01,2013-02-11 00:00:00,
2013-02-10 19:30:00,25.0,23.0,30.33,NW,315,0.0,0.0,92,0.00,,,0.34,VWS V14.01,2013-02-11 00:30:00,
2013-02-10 20:00:00,24.3,22.8,30.33,NW,315,0.0,0.0,94,0.00,,,0.34,VWS V14.01,2013-02-11 01:00:00,
2013-02-10 20:30:00,23.9,22.4,30.32,NW,315,0.0,0.0,94,0.00,,,0.34,VWS V14.01,2013-02-11 01:30:00,
2013-02-10 21:00:00,23.0,21.5,30.32,NW,315,0.0,0.0,94,0.00,,,0.34,VWS V14.01,2013-02-11 02:00:00,
2013-02-10 21:30:00,24.0,22.8,30.32,NW,315,0.0,0.0,95,0.00,,,0.34,VWS V14.01,2013-02-11 02:30:00,
2013-02-10 22:00:00,23.3,22.1,30.31,NW,315,0.0,0.0,95,0.00,,,0.34,VWS V14.01,2013-02-11 03:00:00,
2013-02-10 22:30:00,22.4,20.9,30.31,NW,315,0.0,0.0,94,0.00,,,0.34,VWS V14.01,2013-02-11 03:30:00,
2013-02-10 23:00:00,22.9,21.7,30.31,NW,315,0.0,0.0,95,0.00,,,0.00,VWS V14.01,2013-02-11 04:00:00,
2013-02-10 23:30:00,22.2,21.0,30.30,NW,315,0.0,0.0,95,0.00,,,0.00,VWS V14.01,2013-02-11 04:30:00,